SCP
0 0 0 0 0 0 0 0 0 0 0 0 0 0 0 0 0 0 0 0 0 0 0 0 0 0 0 0 0 0 0 0 0 0 0 0 0 0 0 0 0 0 0
0 0 0 0 0 0 0 0 0 0 0 0 0 0 0 0 0 0 0 0 0 0 0 0 0 0 0 0 0 0 0 0 0 0 0 0 0 0 0 0 0 0 0
0 0 0 0 0 0 0 0 0 0 0 0 0 0 0 0 0 0 0 0 0 0 0 0 0 0 0 0 0 0 0 0 0 0 0 0 0 0 0 0 0 0 0
0 0 0 0 0 0 0 0 0 0 0 0 0 0 0 0 0 0 0 0 0 0 0 0 0 0 0 0 0 0 0 0 0 0 0 0 0 0 0 0 0 0 0
0 0 0 0 0 0 0 0 0 0 0 0 0 0 0 0 0 0 0 0 0 0 0 0 0 0 0 0 0 0 0 0 0 0 0 0 0 0 0 0 0 0 0
0 0 0 0 0 0 0 0 0 0 0 0 0 0 0 0 0 0 0 0 0 0 0 0 0 0 0 0 0 0 0 0 0 0 0 0 0 0 0 0 0 0 0
0 0 0 0 0 0 0 0 0 0 0 0 0 0 0 0 0 0 0 0 0 0 0 0 0 0 0 0 0 0 0 0 0 0 0 0 0 0 0 0 0 0 0
0 0 0 0 0 0 0 0 0 0 0 0 0 0 0 0 0 0 0 0 0 0 0 0 0 0 0 0 0 0 0 0 0 0 0 0 0 0 0 0 0 0 0
0 0 0 0 0 0 0 0 0 0 0 0 0 0 0 0 0 0 0 0 0 0 0 0 0 0 0 0 0 0 0 0 0 0 0 0 0 0 0 0 0 0 0
0 0 0 0 0 0 0 0 0 0 0 0 0 0 0 0 0 0 0 0 0 0 0 0 0 0 0 0 0 0 0 0 0 0 0 0 0 0 0 0 0 0 0
0 0 0 0 0 0 0 0 0 0 0 0 0 0 0 0 0 0 0 0 0 0 0 0 0 0 0 0 0 0 0 0 0 0 0 0 0 0 0 0 0 0 0
0 0 0 0 0 0 0 0 0 0 0 0 0 0 0 0 0 0 0 0 0 0 0 0 0 0 0 0 0 0 0 0 0 0 0 0 0 0 0 0 0 0 0
0 0 0 0 0 0 0 0 0 0 0 0 0 0 0 0 0 0 0 0 0 0 0 0 0 0 0 0 0 0 0 0 0 0 0 0 0 0 0 0 0 0 0
0 0 0 0 0 0 0 0 0 0 0 0 0 0 0 0 0 0 0 0 0 0 0 0 0 0 0 0 0 0 0 0 0 0 0 0 0 0 0 0 0 0 0
0 0 0 0 0 0 0 0 0 0 0 0 0 0 0 0 0 0 0 0 0 0 0 0 0 0 0 0 0 0 0 0 0 0 0 0 0 0 0 0 0 0 0
0 0 0 0 0 0 0 0 0 0 0 0 0 0 0 0 0 0 0 0 0 0 0 0 0 0 0 0 0 0 0 0 0 0 0 0 0 0 0 0 0 0 0
0 0 0 0 0 0 0 0 0 0 0 0 0 0 0 0 0 0 0 0 0 0 0 0 0 0 0 0 0 0 0 0 0 0 0 0 0 0 0 0 0 0 0
0 0 0 0 0 0 0 0 0 0 0 0 0 0 0 0 0 0 0 0 0 0 0 0 0 0 0 0 0 0 0 0 0 0 0 0 0 0 0 0 0 0 0
0 0 0 0 0 0 0 0 0 0 0 0 0 0 0 0 0 0 0 0 0 0 0 0 0 0 0 0 0 0 0 0 0 0 0 0 0 0 0 0 0 0 0
0 0 0 0 0 0 0 0 0 0 0 0 0 0 0 0 0 0 0 0 0 0 0 0 0 0 0 0 0 0 0 0 0 0 0 0 0 0 0 0 0 0 0
0 0 0 0 0 0 0 0 0 0 0 0 0 0 0 0 0 0 0 0 0 0 0 0 0 0 0 0 0 0 0 0 0 0 0 0 0 0 0 0 0 0 0
0 0 0 0 0 0 0 0 0 0 0 0 0 0 0 0 0 0 0 0 0 0 0 0 0 0 0 0 0 0 0 0 0 0 0 0 0 0 0 0 0 0 0
0 0 0 0 0 0 0 0 0 0 0 0 0 0 0 0 0 0 0 0 0 0 0 0 0 0 0 0 0 0 0 0 0 0 0 0 0 0 0 0 0 0 0
0 0 0 0 0 0 0 0 0 0 0 0 0 0 0 0 0 0 0 0 0 0 0 0 0 0 0 0 0 0 0 0 0 0 0 0 0 0 0 0 0 0 0
0 0 0 0 0 0 0 0 0 0 0 0 0 0 0 0 0 0 0 0 0 0 0 0 0 0 0 0 0 0 0 0 0 0 0 0 0 0 0 0 0 0 0
0 0 0 0 0 0 0 0 0 0 0 0 0 0 0 0 0 0 0 0 0 0 0 0 0 0 0 0 0 0 0 0 0 0 0 0 0 0 0 0 0 0 0
Wind_Speed
5 6 12 13 13 14 14 14 14 14 15 15 16 16 16 17 17 17 17 17 18 18 19 19 19 19 19 20 20 20 20 20 20 20 20 20 20 20 20 19 17 12 20
9 7 12 12 14 14 14 14 14 14 15 15 16 16 16 16 17 17 17 17 17 18 18 18 18 18 18 18 18 19 19 19 19 18 18 16 18 19 19 18 17 13 19
11 9 10 12 13 14 14 13 13 14 15 15 15 16 16 16 16 16 17 17 17 17 17 17 17 17 17 17 18 19 19 18 18 17 15 8 11 18 18 18 18 18 18
12 9 10 12 13 14 14 14 13 14 14 15 15 15 15 16 16 16 16 16 16 16 16 17 16 16 17 17 18 18 18 18 17 15 8 7 8 16 17 17 17 17 17
10 8 10 12 14 15 14 14 14 14 14 14 14 15 15 15 15 16 16 15 15 16 16 16 15 16 16 17 17 18 18 17 16 12 7 6 6 15 17 17 17 16 16
9 8 9 13 14 14 14 14 14 13 13 14 14 14 14 15 15 15 15 15 15 15 15 15 14 15 15 16 16 17 17 16 12 7 6 6 6 14 16 16 15 15 15
9 8 9 12 13 14 14 14 14 13 13 13 14 14 14 14 14 14 14 14 14 14 14 14 13 14 15 15 15 16 16 15 8 6 5 5 8 14 14 14 14 14 14
11 8 8 11 12 12 12 13 13 13 13 13 13 13 13 13 13 13 13 13 13 13 13 12 12 13 14 14 14 14 13 11 9 7 5 5 10 13 13 13 13 13 13
10 8 7 7 9 11 11 11 11 11 11 12 12 12 11 11 12 12 12 12 12 12 12 11 11 12 13 14 14 13 12 11 6 4 5 4 9 12 12 12 12 12 12
8 8 7 6 6 6 7 10 11 11 11 11 11 10 10 10 10 10 9 11 11 11 11 10 10 10 11 12 12 12 11 8 5 4 3 4 9 10 10 10 10 10 10
9 8 8 7 7 6 6 9 9 10 10 10 9 11 9 5 5 6 7 9 10 10 9 9 8 8 8 9 10 10 7 3 4 3 2 5 8 9 9 8 8 8 8
12 10 8 9 8 7 6 6 5 5 6 5 5 6 4 4 4 5 8 9 8 7 7 7 7 6 5 3 5 6 3 3 3 2 2 4 6 7 7 7 6 6 6
12 11 10 10 9 8 5 5 3 3 4 4 5 5 4 4 3 4 3 4 4 4 3 3 3 2 2 2 2 2 3 2 1 1 1 3 4 4 5 5 4 4 4
11 12 11 11 10 9 7 6 5 4 4 4 5 6 5 4 4 4 3 3 3 2 2 2 1 1 2 2 2 3 3 2 1 1 0 1 1 2 3 3 3 3 3
11 11 11 11 11 10 8 6 6 6 5 5 5 5 6 5 5 4 3 3 3 3 3 3 2 2 2 1 1 2 2 2 2 1 1 1 1 2 3 4 4 4 4
11 11 11 12 12 11 9 8 7 6 6 5 5 6 7 6 6 5 5 4 4 3 3 3 3 3 2 1 1 1 2 2 2 2 2 2 3 4 5 5 6 6 7
11 11 11 11 11 12 10 9 7 7 6 6 6 7 8 7 7 6 5 5 4 4 4 3 3 2 2 1 2 1 1 2 2 3 3 2 2 4 6 8 8 8 9
10 11 12 10 11 11 10 8 6 6 7 6 6 6 8 8 8 7 6 6 5 4 4 3 3 2 2 2 2 2 2 2 3 3 3 3 3 3 5 8 9 10 10
13 13 13 12 13 12 10 8 7 6 7 6 6 6 7 8 8 7 6 5 5 4 4 4 3 3 3 3 3 3 3 3 4 3 4 4 4 4 3 6 8 9 11
13 13 13 13 12 11 8 6 6 6 6 6 6 7 8 7 8 7 6 6 6 5 4 4 3 3 2 2 2 3 4 4 4 4 5 4 4 5 4 4 4 6 11
11 13 14 14 13 11 9 9 9 9 7 6 6 8 9 8 8 7 6 6 6 6 6 6 4 3 2 2 1 3 3 4 5 5 4 4 5 5 4 5 4 4 5
13 14 14 14 14 12 11 9 6 5 5 5 5 7 8 9 9 7 7 7 7 6 6 6 5 3 3 3 3 1 3 4 3 4 4 4 5 3 5 5 5 6 5
12 14 13 14 14 13 10 5 4 4 3 5 7 7 8 8 8 8 9 7 8 7 7 8 7 7 5 4 3 4 3 4 3 3 3 3 4 4 5 4 6 7 7
12 10 11 11 11 11 11 9 10 10 10 9 6 6 6 8 8 9 8 9 8 7 7 7 8 6 5 4 3 4 3 1 2 4 3 2 3 5 6 5 6 7 7
9 8 9 9 10 10 11 12 12 11 8 4 4 6 7 7 8 9 9 9 8 7 8 7 8 8 6 5 5 3 4 3 3 4 5 3 3 4 5 6 5 6 6
5 5 6 7 8 9 11 11 12 12 9 7 7 7 7 6 6 8 8 8 8 7 8 8 9 9 8 7 5 4 4 4 5 5 7 5 4 4 4 4 5 5 5
Wind_Direction
150 154 136 128 123 116 110 106 104 102 98 94 92 89 88 86 84 82 81 81 81 81 81 81 81 80 78 77 77 77 76 74 72 72 72 73 72 72 70 68 65 61 67
149 147 135 129 125 120 115 111 109 106 102 98 95 92 92 90 88 86 84 83 83 82 83 83 82 80 78 77 79 81 80 77 75 72 69 68 71 72 71 70 69 69 68
139 138 133 130 127 123 119 116 113 110 106 102 98 96 95 94 92 90 88 86 85 85 86 85 83 79 76 76 81 84 82 80 77 72 67 56 68 72 71 70 70 70 71
138 138 135 132 131 127 123 120 115 112 110 106 102 99 97 96 94 92 90 89 89 88 88 87 83 78 75 77 82 86 84 81 77 71 59 53 63 73 72 71 70 69 69
135 136 138 135 135 132 127 123 119 115 113 110 107 104 101 98 97 95 92 91 90 90 89 88 83 78 76 79 85 88 86 83 77 67 55 52 61 75 74 73 71 69 68
134 137 142 139 138 135 131 128 124 120 117 114 111 108 105 103 100 99 96 93 92 91 90 88 84 79 77 79 86 90 89 85 73 58 53 53 63 78 78 77 74 73 71
138 140 144 141 140 138 135 133 129 126 122 119 117 114 110 109 106 104 101 98 95 94 93 90 86 80 78 80 87 93 93 88 75 59 53 56 73 80 79 77 75 74 73
143 143 143 142 141 141 139 136 134 131 128 126 123 121 117 115 112 108 105 103 100 98 95 92 88 82 78 78 87 93 92 87 79 68 57 60 81 82 80 79 77 76 75
142 142 141 143 144 143 141 138 136 133 131 130 127 122 117 114 114 110 109 108 106 102 99 95 90 85 79 78 83 89 91 87 74 63 61 59 83 85 83 81 81 80 78
144 147 147 145 143 142 142 142 139 135 132 130 127 122 118 114 112 112 110 112 111 108 104 100 93 85 76 75 80 87 91 83 72 62 50 75 86 88 87 85 84 83 81
156 159 157 153 149 147 147 149 143 140 139 136 135 133 123 115 112 113 117 118 117 114 110 105 95 81 65 61 71 84 86 84 82 62 47 89 92 93 92 91 89 88 86
170 173 169 164 160 157 157 148 146 146 147 145 147 143 134 132 129 125 123 125 122 118 114 109 98 74 60 49 58 74 79 92 83 65 57 91 101 101 101 101 99 96 92
173 174 176 173 169 166 159 160 159 153 156 160 162 157 144 135 130 124 123 121 120 116 99 95 81 64 67 69 70 78 96 99 97 74 47 84 107 118 120 119 117 114 109
175 180 179 177 175 173 167 171 169 168 173 176 178 166 153 150 153 155 153 154 151 143 142 126 119 108 95 89 95 98 105 119 135 131 341 93 124 151 162 162 164 163 159
181 183 181 179 179 177 173 178 178 182 186 185 180 177 168 165 169 169 169 172 176 170 167 164 163 153 138 118 113 120 130 150 168 180 255 265 246 236 227 222 214 212 212
188 187 183 182 181 178 180 183 184 185 186 187 188 184 178 174 173 175 178 182 187 183 177 174 176 170 171 164 166 162 170 181 197 204 221 259 264 259 253 250 247 245 241
194 189 187 185 183 183 185 186 184 186 185 190 193 189 184 181 180 180 182 189 192 182 174 167 169 164 176 186 208 221 223 225 224 226 227 236 258 266 265 261 261 262 262
194 194 193 188 188 190 189 189 187 188 189 193 192 192 191 188 184 181 186 194 187 175 171 170 167 172 195 207 225 242 249 254 249 243 240 240 242 252 263 263 265 267 268
198 195 195 193 193 194 192 191 191 190 196 196 193 195 196 193 188 186 192 191 178 176 178 175 174 174 194 216 233 249 254 252 253 256 251 246 241 242 245 263 267 269 268
199 196 196 196 196 193 190 189 193 198 202 200 199 201 198 197 193 190 191 186 176 177 183 183 181 182 191 200 232 264 263 257 254 250 249 248 245 243 244 252 261 266 265
196 195 195 196 195 190 192 195 199 205 203 203 203 202 201 200 196 193 190 185 183 190 195 188 172 184 200 146 161 292 287 251 247 247 243 247 251 249 250 251 251 253 265
197 197 196 197 195 195 199 197 197 195 199 201 199 205 206 203 200 199 195 193 191 192 191 188 177 174 190 174 174 204 302 311 273 243 236 240 251 255 256 253 250 250 251
200 199 199 199 197 197 192 178 171 175 187 199 207 209 208 204 201 202 201 195 193 194 200 199 193 188 198 201 197 180 200 247 298 293 252 243 245 249 255 255 253 252 251
205 199 198 196 196 195 188 185 186 196 208 211 205 203 200 203 204 205 202 198 196 198 200 200 199 200 191 201 211 231 232 207 232 296 291 263 251 252 254 255 256 256 252
201 195 196 192 195 193 191 195 196 205 210 194 185 194 202 206 208 206 203 200 199 200 203 196 196 201 203 203 197 195 215 228 227 240 274 289 287 255 248 250 254 258 256
190 187 186 188 196 193 193 195 198 203 199 189 194 201 205 206 209 209 203 203 201 201 203 202 202 204 208 210 207 197 192 195 206 216 245 260 269 271 257 248 248 252 253